[[{"header":{"parameterUnit":"m.s-1","parameterCategory":1,"la1":30.2991,"la2":30.254,"lo1":-89.0895,"lo2":-89.0444,"dy":0.0017,"dx":0.0017,"nx":28,"ny":28,"refTime":"2024-12-05T09:00:00:Z","depth":0,"parameterNumber":2,"parameterNumberName":"U-component_of_WINDS"},"data":[0,0,0,0,0,0,0,0,0,0,0,0,0,0,0,0,0,0,0,0,0,0,0,0,0,0,0,0,0,0,0,0,0,0,0,0,0,0,0,0,0,0,0,0,0,0,0,0,0,0,0,0,0,0,0,0,0,0,0.8854,0.8855,0,0.8978,0.8979,0.898,0.8992,0.899,0.8989,0.8988,0.9114,0.9118,0.9123,0,0,0,0,0,0,0,0,0,0,0,0,0,0.8628,0.8632,0.8854,0.8856,0.8857,0.8977,0.8979,0.8981,0.8992,0.899,0.8989,0.8987,0.9112,0.9117,0.9123,0,0,0,0,0,0,0,0,0,0,0,0,0,0.8736,0.8634,0.8854,0.8877,0.888,0.8977,0.8979,0.8981,0.8992,0.899,0.8988,0.8986,0.911,0.9117,0.9124,0.9205,0,0,0.9145,0.9148,0,0,0,0,0,0,0,0,0.873,0.8745,0.8872,0.8876,0.888,0.8967,0.8946,0.9056,0.8993,0.895,0.8988,0.8986,0.9066,0.9077,0.9104,0.9211,0.9216,0.9145,0.9149,0.9152,0.9154,0,0,0,0,0,0,0,0.8723,0.874,0.8903,0.8874,0.8879,0.8882,0.8895,0.8967,0.9018,0.8953,0.8954,0.8969,0.9068,0.9098,0.9107,0.9218,0.9145,0.9151,0.9155,0.9158,0.94,0.9402,0,0,0,0,0,0,0.8711,0.8733,0.8899,0.8907,0.8799,0.8887,0.8902,0.8941,0.9017,0.9026,0.8971,0.8969,0.9087,0.9099,0.9112,0.9213,0.9152,0.9159,0.9163,0.9397,0.94,0.9403,0,0,0,0,0,0,0.8706,0.8726,0.8894,0.882,0.8842,0.8893,0.8937,0.8945,0.8974,0.903,0.9039,0.8991,0.9086,0.9102,0.9182,0.9217,0.9162,0.9168,0.9395,0.9398,0.9402,0.9415,0,0,0,0,0,0,0.87,0.8724,0.8755,0.8821,0.8846,0.8962,0.8939,0.8948,0.8986,0.8985,0.9052,0.9061,0.9086,0.9172,0.9189,0.9226,0.9173,0.9392,0.9396,0.94,0.9411,0.9418,0.9424,0,0,0,0,0,0.8691,0.8753,0.8756,0.8776,0.8886,0.8964,0.8978,0.9006,0.8989,0.9021,0.9057,0.9059,0.9211,0.918,0.9199,0.9238,0.939,0.9395,0.94,0.9408,0.9417,0.9424,0,0,0,0,0,0,0.8689,0.8762,0.8766,0.8851,0.8902,0.8966,0.9006,0.9013,0.9069,0.9066,0.9098,0.9113,0.9192,0.9223,0.9188,0.9322,0.9299,0.9308,0.9298,0.9307,0.9313,0.9303,0.9179,0,0,0,0,0,0.8698,0.8756,0.8817,0.8886,0.8911,0.8955,0.899,0.9007,0.906,0.9081,0.9123,0.9174,0.9234,0.9272,0.933,0.9417,0.9432,0.9453,0.9459,0.9464,0.9472,0.9521,0.9532,0.942,0.942,0.942,0,0,0.8718,0.8765,0.8799,0.8886,0.8927,0.8986,0.8972,0.9035,0.9079,0.909,0.9168,0.9202,0.9261,0.9345,0.9384,0.9374,0.9506,0.9471,0.9475,0.9479,0.9527,0.9538,0.9547,0.9423,0.9423,0.9422,0,0,0.8784,0.8825,0.8888,0.893,0.8992,0.9021,0.9036,0.9101,0.9123,0.9202,0.9212,0.9266,0.9368,0.941,0.9445,0.953,0.9534,0.9548,0.9581,0.9628,0.9637,0.9645,0.9676,0.9686,0.9555,0.9555,0.9555,0,0.88,0.8889,0.8919,0.8982,0.902,0.9035,0.9099,0.9138,0.9216,0.9242,0.923,0.9359,0.94,0.9495,0.9516,0.9543,0.9562,0.954,0.9633,0.9642,0.965,0.9679,0.969,0.9557,0.9557,0.9556,0.9556,0,0.8906,0.8969,0.9012,0.9088,0.9131,0.9194,0.9234,0.9275,0.9289,0.9319,0.9401,0.9451,0.952,0.9544,0.9558,0.9641,0.9633,0.9627,0.9604,0.9661,0.9689,0.9701,0.9558,0.9558,0.9558,0.9557,0,0,0.8971,0.9065,0.908,0.9116,0.9187,0.9236,0.93,0.9368,0.9403,0.9457,0.9512,0.9599,0.9594,0.9634,0.9653,0.9695,0.976,0.9684,0.9686,0.9696,0.9856,0.986,0.9872,0.9764,0.9766,0.9768,0.9851,0,0.9045,0.916,0.919,0.9288,0.9346,0.9362,0.9419,0.9469,0.95,0.9554,0.9589,0.965,0.9639,0.9663,0.9706,0.9743,0.9793,0.9738,0.9816,0.9818,0.9799,0.9887,0.9891,0.9966,0.9862,0.9864,0.9866,0,0.9145,0.9203,0.9307,0.9373,0.9398,0.9448,0.9514,0.9566,0.9624,0.9644,0.9689,0.9705,0.9774,0.9748,0.9844,0.9806,0.984,0.9863,0.9867,0.9874,0.9844,0.9896,0.9991,1.0002,0.9883,0.9882,0.9881,0,0.9182,0.9286,0.9362,0.9392,0.947,0.9505,0.954,0.9596,0.9635,0.9693,0.9719,0.9784,0.982,0.987,0.9903,0.9881,0.9996,0.9973,1.0014,1.0014,1.0037,1.0034,1.0137,1.006,1.006,1.0059,1.0059,0,0.9261,0.9323,0.938,0.9426,0.9498,0.9532,0.9602,0.9637,0.9688,0.9742,0.976,0.981,0.9852,0.9908,0.9935,1.001,1.0026,1.0044,1.005,1.0042,1.004,1.0064,1.0059,1.0062,1.0062,1.0061,1.0061,0,0.9313,0.9353,0.9437,0.9505,0.9524,0.9574,0.9632,0.9679,0.9712,0.978,0.9798,0.9849,0.9917,0.9956,1.004,1.0059,1.0142,1.0146,1.0123,1.0125,1.0164,1.016,1.0286,1.0304,1.0215,1.0216,1.0216,0,0.9359,0.9408,0.9483,0.9521,0.9556,0.9617,0.9658,0.9695,0.9737,0.9808,0.9846,0.9915,0.9972,1.0079,1.0124,1.0189,1.0195,1.0235,1.0205,1.0195,1.0195,1.0192,1.0197,1.0239,1.024,1.024,1.0241,0,0.9438,0.9456,0.9515,0.9581,0.963,0.9684,0.9738,0.9768,0.9814,0.986,0.993,0.9975,1.0062,1.0131,1.02,1.0236,1.0247,1.0251,1.0264,1.0255,1.0239,1.0248,1.0136,1.0247,1.0246,1.0246,1.0246,1.0245,0.9488,0.9533,0.9593,0.9659,0.9704,0.9754,0.9801,0.9841,0.99,0.9974,0.9993,1.0066,1.0125,1.022,1.0258,1.0317,1.0309,1.0328,1.0333,1.0337,1.0338,1.0231,1.0329,1.0329,1.0329,1.0329,1.0329,0,0.9568,0.9608,0.9668,0.9743,0.9795,0.9802,0.9862,0.9905,0.997,1.0024,1.008,1.0162,1.0229,1.028,1.0349,1.0386,1.0393,1.0403,1.04,1.0408,1.034,1.0322,1.0396,1.0396,1.0396,1.0396,1.0396,1.0396,0.9615,0.9691,0.9717,0.9817,0.9857,0.9929,0.9964,1.0011,1.0054,1.0144,1.02,1.0234,1.0288,1.0361,1.0424,1.0437,1.0461,1.0471,1.0485,1.042,1.0413,1.0406,1.0389,1.0476,1.0476,1.0548,1.0549,1.0549]},{"header":{"parameterUnit":"m.s-1","parameterCategory":1,"la1":30.2991,"la2":30.254,"lo1":-89.0895,"lo2":-89.0444,"dy":0.0017,"dx":0.0017,"nx":28,"ny":28,"refTime":"2024-12-05T09:00:00:Z","depth":0,"parameterNumber":3,"parameterNumberName":"V-component_of_WINDS"},"data":[0,0,0,0,0,0,0,0,0,0,0,0,0,0,0,0,0,0,0,0,0,0,0,0,0,0,0,0,0,0,0,0,0,0,0,0,0,0,0,0,0,0,0,0,0,0,0,0,0,0,0,0,0,0,0,0,0,0,1.0648,1.0649,0,1.0751,1.0752,1.0753,1.0718,1.0716,1.0713,1.0711,1.0823,1.0828,1.0833,0,0,0,0,0,0,0,0,0,0,0,0,0,1.0427,1.0431,1.0648,1.0649,1.065,1.0751,1.0752,1.0753,1.0718,1.0716,1.0713,1.071,1.0822,1.0828,1.0834,0,0,0,0,0,0,0,0,0,0,0,0,0,1.0526,1.0432,1.0647,1.0645,1.0645,1.075,1.0752,1.0754,1.0719,1.0716,1.0712,1.0709,1.082,1.0827,1.0835,1.0951,0,0,1.0858,1.0862,0,0,0,0,0,0,0,0,1.052,1.0534,1.0644,1.0645,1.0646,1.0718,1.0715,1.082,1.072,1.0691,1.0711,1.0707,1.0792,1.0801,1.0828,1.0956,1.0961,1.0859,1.0864,1.0867,1.0869,0,0,0,0,0,0,0,1.0513,1.0529,1.0689,1.0645,1.0647,1.064,1.0651,1.0735,1.076,1.0694,1.0691,1.0704,1.0792,1.0821,1.0831,1.0962,1.0859,1.0866,1.087,1.0873,1.1192,1.1195,0,0,0,0,0,0,1.0505,1.0524,1.0685,1.0692,1.0573,1.0647,1.0659,1.0698,1.0758,1.0764,1.0706,1.0702,1.081,1.0822,1.0835,1.0975,1.0867,1.0874,1.0878,1.1188,1.1192,1.1197,0,0,0,0,0,0,1.05,1.052,1.0681,1.0607,1.0627,1.0654,1.07,1.0702,1.0732,1.0768,1.0773,1.0732,1.0807,1.0824,1.0922,1.0979,1.0877,1.0884,1.1183,1.1189,1.1195,1.1257,0,0,0,0,0,0,1.0494,1.0518,1.0561,1.0608,1.0631,1.0765,1.0703,1.0707,1.0744,1.0739,1.0793,1.0799,1.0806,1.0911,1.0929,1.0988,1.089,1.1178,1.1186,1.1193,1.125,1.1264,1.1277,0,0,0,0,0,1.0486,1.0576,1.0563,1.0583,1.0685,1.0768,1.0782,1.0786,1.0749,1.0793,1.0817,1.0797,1.0969,1.0921,1.0942,1.1003,1.1175,1.1184,1.1192,1.1244,1.1262,1.1276,0,0,0,0,0,0,1.0537,1.0582,1.0569,1.0676,1.0718,1.0762,1.0818,1.0804,1.086,1.0853,1.0858,1.0871,1.0972,1.0997,1.0943,1.1119,1.1067,1.108,1.1099,1.1116,1.1129,1.1122,1.0897,0,0,0,0,0,1.056,1.0622,1.0658,1.075,1.0771,1.0791,1.0828,1.0827,1.0873,1.0891,1.0922,1.0968,1.1033,1.1075,1.1137,1.1253,1.1266,1.1305,1.1319,1.1329,1.1342,1.1407,1.1426,1.1225,1.1225,1.1225,0,0,1.0609,1.0642,1.0681,1.076,1.0793,1.086,1.0807,1.0879,1.0929,1.0903,1.0997,1.1021,1.1074,1.1182,1.1231,1.1206,1.1399,1.134,1.1348,1.1355,1.1418,1.1437,1.1453,1.1231,1.123,1.1229,0,0,1.0733,1.0763,1.0842,1.0876,1.0926,1.0938,1.0957,1.1004,1.1018,1.1112,1.1094,1.1155,1.1265,1.1304,1.1338,1.1476,1.1461,1.1496,1.1566,1.1629,1.1645,1.1659,1.1711,1.1729,1.1507,1.1508,1.1508,0,1.0789,1.0886,1.0886,1.0959,1.0996,1.0973,1.1055,1.1088,1.1156,1.1183,1.1153,1.1292,1.1325,1.1443,1.1476,1.1504,1.1528,1.1491,1.1642,1.1656,1.167,1.1719,1.1738,1.1512,1.1511,1.1511,1.151,0,1.0953,1.1021,1.1079,1.1144,1.1186,1.1264,1.1277,1.1321,1.1317,1.1333,1.1431,1.147,1.1539,1.1567,1.1564,1.1685,1.1668,1.164,1.1588,1.1693,1.1739,1.1758,1.1517,1.1516,1.1515,1.1514,0,0,1.1114,1.1176,1.1198,1.1227,1.128,1.1333,1.141,1.1476,1.1514,1.1562,1.1629,1.1722,1.1697,1.1736,1.1737,1.1793,1.1902,1.1759,1.176,1.1786,1.204,1.2062,1.2084,1.1891,1.1895,1.1898,1.2037,0,1.1244,1.1377,1.1379,1.1502,1.1566,1.1544,1.1612,1.1653,1.167,1.1728,1.1748,1.1815,1.1776,1.1799,1.1853,1.1877,1.1954,1.1867,1.1957,1.196,1.1946,1.2108,1.2131,1.226,1.2054,1.2058,1.206,0,1.1413,1.1464,1.1594,1.1638,1.1665,1.1725,1.1786,1.1841,1.1888,1.1896,1.1939,1.1932,1.2013,1.1957,1.207,1.2011,1.2048,1.2065,1.207,1.2081,1.2018,1.2125,1.2301,1.2322,1.2088,1.2086,1.2084,0,1.152,1.1621,1.1712,1.1737,1.1791,1.1834,1.1858,1.1901,1.1941,1.1995,1.2021,1.2084,1.212,1.217,1.2181,1.2138,1.2296,1.2239,1.2308,1.2308,1.2344,1.2342,1.2531,1.2363,1.2363,1.2363,1.2362,0,1.1666,1.1747,1.176,1.1817,1.1907,1.1909,1.1999,1.202,1.2059,1.212,1.2106,1.2165,1.2175,1.2236,1.2246,1.234,1.2355,1.2367,1.2369,1.237,1.2369,1.2396,1.2388,1.2368,1.2367,1.2366,1.2365,0,1.1802,1.1814,1.1911,1.1953,1.1965,1.203,1.2067,1.2122,1.2137,1.2216,1.2234,1.2259,1.2331,1.2346,1.2432,1.2438,1.2551,1.2543,1.2535,1.2535,1.2603,1.2597,1.2818,1.2848,1.2659,1.266,1.2662,0,1.1895,1.1957,1.2004,1.2043,1.2069,1.2133,1.2173,1.2177,1.222,1.2277,1.2326,1.2396,1.2452,1.2569,1.2596,1.2662,1.2657,1.273,1.2667,1.2666,1.2661,1.2659,1.2666,1.2743,1.2745,1.2746,1.2748,0,1.2061,1.2064,1.212,1.218,1.2227,1.2275,1.232,1.2354,1.2364,1.2413,1.2485,1.2529,1.2615,1.2686,1.2752,1.278,1.2768,1.2767,1.2787,1.2789,1.2783,1.279,1.257,1.2762,1.2761,1.276,1.2759,1.2759,1.2181,1.2234,1.2276,1.234,1.2374,1.2417,1.247,1.2491,1.2551,1.262,1.2619,1.2699,1.2746,1.2833,1.2865,1.2929,1.2907,1.2935,1.2942,1.295,1.2957,1.277,1.2941,1.294,1.294,1.2939,1.2939,0,1.2348,1.2373,1.2432,1.2494,1.2545,1.2525,1.2574,1.2619,1.2688,1.2731,1.2787,1.2871,1.2939,1.2971,1.3039,1.3085,1.3081,1.3103,1.3101,1.3108,1.2972,1.2949,1.3105,1.3105,1.3105,1.3105,1.3105,1.3105,1.2441,1.2531,1.2539,1.2647,1.2672,1.2748,1.2778,1.2818,1.2853,1.2946,1.3002,1.3021,1.3061,1.3132,1.3195,1.3203,1.323,1.3255,1.3261,1.3134,1.3117,1.3101,1.308,1.3261,1.3261,1.3392,1.3393,1.3394]}]]